Other Public Products
Issued by NWS Charleston, SC

Current Version | Previous Version | Text Only | Print | Product List | Glossary Off
Versions: 1 2 3 4 5 6 7 8 9 10 11 12 13 14 15 16 17 18 19 20 21 22 23 24 25 26 27 28 29 30 31 32 33 34 35 36 37 38 39 40 41 42 43 44 45 46 47 48 49 50

727
FPUS82 KCHS 191938
OPUCHS

TEST...KCHS/KSAV Gateway Observations...TEST
National Weather Service Charleston SC
300 PM EDT TUE SEP 19 2017

NOTE: "fair" indicates few or no clouds below 12,000 feet with no
significant weather and/or obstructions to visibility.

SCZ050-WAZ558-NCZ071-TXZ119-213-PAZ071-DCZ001-FLZ074-172-MI076-
NYZ176-178-MAZ016-IL014-TNZ027-NJZ106-GAZ044-MD014-192000-

...Gateway Observations for Charleston International...

CITY           SKY/WX    TMP DP  RH WIND       PRES   REMARKS
Chas Airport   MOSUNNY   87  68  52 N10       29.95F HX  90
Seattle        PTSUNNY   58  49  72 SW12      29.76R
Charlotte      PTSUNNY   85  67  54 VRB3      29.99F
Dallas DFW     MOSUNNY   94  72  48 S14G22    29.85F HX 102
Dallas Love    PTSUNNY   92  71  50 S10       29.86F HX  98
Philladelphia  LGT RAIN  75  66  73 NE7       29.90F
Wash National  MOSUNNY   83  67  58 N16       29.93F
Baltimore      MOSUNNY   82  67  60 N10       29.91F
Miami          MOSUNNY   93  72  50 W6        29.90F HX 101
Detroit        LGT RAIN  70  69  97 E3        29.98F FOG
Newark         CLOUDY    79  63  57 NE17G30   29.91F
Laguardia      LGT RAIN  74  67  78 NE20      29.92F
J F K          LGT RAIN  69  66  90 N22G29    29.90F
Boston Logan   CLOUDY    65  63  93 NE18      30.04F
Ft. Lauderdale MOSUNNY   91  78  65 E9        29.90F HX 106
Chicago O`Hare PTSUNNY   77  65  66 NE13      29.93F
Chicago Midway MOSUNNY   77  63  61 E10       29.93F
Houston Bush   PTSUNNY   92  73  53 S8        29.92F HX 100
Houston Hobby  PTSUNNY   92  73  53 SW12      29.91F HX 100
Nashville      CLOUDY    82  71  69 SE10      29.96F THUNDER
Atlanta        MOSUNNY   87  61  41 VRB3      29.99F

$$

GAZ044-118-TXZ119-213-NCZ071-DCZ001-MDZ014-506-PAZ021-071-NJZ106-
NYZ176-178-MAZ106-OHZ011-021-055-MIZ076-KYZ091-ILZ014-INZ047-
MNZ060-ONZ431-192000-

...Gateway Observations for Savannah International...

CITY           SKY/WX    TMP DP  RH WIND       PRES   REMARKS
Savannah Arpt  PTSUNNY   89  65  44 W6        29.95F HX  91
Atlanta        MOSUNNY   87  61  41 VRB3      29.99F
Charlotte      PTSUNNY   85  67  54 VRB3      29.99F
Dallas DFW     MOSUNNY   94  72  48 S14G22    29.85F HX 102
Houston Bush   PTSUNNY   92  73  53 S8        29.92F HX 100
Wash National  MOSUNNY   83  67  58 N16       29.93F
Wash Dulles    MOSUNNY   80  66  62 N12       29.95F
Baltimore      MOSUNNY   82  67  60 N10       29.91F
Philadelphia   LGT RAIN  75  66  73 NE7       29.90F
Newark         CLOUDY    79  63  57 NE17G30   29.91F
Laguardia      LGT RAIN  74  67  78 NE20      29.92F
J F K          LGT RAIN  69  66  90 N22G29    29.90F
Boston         CLOUDY    65  63  93 NE18      30.04F
Pittsburg      MOSUNNY   83  62  49 E6        29.99F
Akron          CLOUDY    79  62  56 W3        30.00F
Cleveland      CLOUDY    82  65  56 S7        29.99F
Cincinnati     PTSUNNY   75  67  76 E5        29.97F
Columbus       CLOUDY    72  70  95 SW7       29.97F
Detroit        LGT RAIN  70  69  97 E3        29.98F FOG
Chicago O`Hare PTSUNNY   77  65  66 NE13      29.93F
Minneapolis    PTSUNNY   77  64  64 SE16      29.82F
Indianapolis   PTSUNNY   78  68  71 SW5       29.92F
Toronto Canada PTSUNNY   81  66  61 SE7       29.99F

$$




USA.gov is the U.S. government's official web portal to all federal, state and local government web resources and services.